Regional Weather Roundup
Issued by NWS

Home | Current Version | Previous Version | Graphics & Text | Print | Product List | Glossary On
Versions: 1 2 3 4 5 6 7 8 9 10 11 12 13 14 15 16 17 18 19 20 21 22 23 24 25 26 27 28 29 30 31 32 33 34 35 36 37 38 39 40 41 42 43 44 45 46 47 48 49 50
000
ASUS43 KLOT 281708
RWRIL

ILLINOIS REGIONAL WEATHER ROUNDUP
NATIONAL WEATHER SERVICE CHICAGO/ROMEOVILLE IL
1200 PM CDT THU APR 28 2016

NOTE: "FAIR" INDICATES FEW OR NO CLOUDS BELOW 12,000 FEET WITH NO
SIGNIFICANT WEATHER AND/OR OBSTRUCTIONS TO VISIBILITY.

* THESE STATIONS ARE NOT UNDER NWS QUALITY CONTROL. THEY ALSO MAY NOT
  REPORT WEATHER SUCH AS PRECIPITATION OR FOG.

ILZ001-002-007-009-015-016-024-281800-
NORTHWEST ILLINOIS

CITY           SKY/WX    TMP DP  RH WIND       PRES   REMARKS
MOLINE         CLOUDY    52  48  86 E10       29.85S FOG
STERLING*      CLOUDY    48  46  93 E8        29.89R
SAVANNA*       CLOUDY    48  44  88 E12       29.88S FOG
$$

ILZ003-004-008-010-011-017-018-281800-
NORTH CENTRAL ILLINOIS

CITY           SKY/WX    TMP DP  RH WIND       PRES   REMARKS
ROCKFORD       CLOUDY    47  40  76 NE10      29.91S
FREEPORT*      CLOUDY    44  40  86 E13       29.91S
ROCHELLE*      CLOUDY    47  44  87 E8        29.89R FOG
DE KALB*       CLOUDY    47  44  87 E13       29.88S
$$

ILZ005-006-012>014-019>023-281800-
NORTHEAST ILLINOIS

CITY           SKY/WX    TMP DP  RH WIND       PRES   REMARKS
CHICAGO-OHARE  CLOUDY    45  41  86 NE13      29.89S
CHICAGO-MIDWAY CLOUDY    48  43  82 NE12      29.88S
AURORA         CLOUDY    49  44  83 E12       29.89R HAZE
LANSING*       CLOUDY    50  46  84 E3        29.88S
JOLIET*        CLOUDY    51  48  90 NE6       29.88R FOG
WAUKEGAN       CLOUDY    42  37  82 NE13      29.92S
DUPAGE AIRPORT CLOUDY    47  40  76 NE10      29.89R
KANKAKEE*      CLOUDY    52  49  87 E5        29.87S
WHEELING       CLOUDY    43  38  82 NE10      29.91F
MORRIS*        CLOUDY    50  47  91 NE5       29.87R FOG
ROMEOVILLE*    CLOUDY    47  44  88 NE7       29.88R FOG
NORTHERLY ISL    N/A     45  41  86 NE12        N/A
NORTHERLY ISL    N/A     45  41  86 NE12        N/A
$$

LMZ740>746-281800-
SOUTHERN LAKE MICHIGAN

STATION/POSITION SKY/WX   TEMP    WIND        PRES    VSBY  WAVE
                          AIR SEA DIR/SP/G                  HT/PER
                          (F)     (DEG/KT/KT) (MB)    (MI)  (FT/S)
SOUTHERN BUOY              39 40   80/ 16/ 19 1013.7S         4/ 5
HARRISON CRIB              44      60/ 13/ 14   N/A
BURNHAM HARBOR             45      40/ 10/ 12   N/A
CALUMET HARBOR             46      50/  8/ 10 1011.5R
BURNS HARBOR               49     110/ 10/ 12 1012.2R
MICHIGAN CITY              48     110/  7/  8   N/A
ST. JOSEPH                 48 47  140/ 12/ 14   N/A           2/ 5
$$

ILZ025>027-034>036-040-047-049-050-058-095>099-281800-
WEST-CENTRAL ILLINOIS

CITY           SKY/WX    TMP DP  RH WIND       PRES   REMARKS
QUINCY         CLOUDY    59  48  67 W12       29.87R
GALESBURG*     CLOUDY    58  51  77 SW10      29.85R
MACOMB*        CLOUDY    57  51  79 W10       29.88R
JACKSONVILLE*  CLOUDY    63  49  60 W13       29.86R
PITTSFIELD*    CLOUDY    60  49  66 W9        29.88R
$$

ILZ028>032-037-038-041>044-048-051>054-059>061-281800-
CENTRAL ILLINOIS

CITY           SKY/WX    TMP DP  RH WIND       PRES   REMARKS
PONTIAC        CLOUDY    54  53  97 E3        29.87R FOG
BLOOMINGTON    PTSUNNY   63  57  80 VRB6      29.86R
DECATUR        MOSUNNY   69  52  54 W12       29.83R
PEORIA         CLOUDY    59  51  75 E7        29.84S
LACON*         CLOUDY    53  49  84 NE5       29.85F
LINCOLN*       MOSUNNY   68  55  62 SW6       29.83S
SPRINGFIELD    PTSUNNY   67  54  63 W14       29.84R
TAYLORVILLE    PTSUNNY   66  54  63 SW12      29.84S
$$

ILZ033-039-045-046-055>057-062-063-281800-
EAST-CENTRAL ILLINOIS

CITY           SKY/WX    TMP DP  RH WIND       PRES   REMARKS
CHAMPAIGN      MOSUNNY   66  58  75 W9        29.83R
RANTOUL*       CLOUDY    62  58  86 CALM      29.84S
MATTOON        MOSUNNY   67  50  54 W12       29.83R
PARIS*         PTSUNNY   67  60  76 W17G23    29.84R
$$

ILZ079-100>102-281800-
SOUTHWEST ILLINOIS

CITY           SKY/WX    TMP DP  RH WIND       PRES   REMARKS
BELLEVILLE     MOSUNNY   69  52  55 SW16      29.86R
CAHOKIA*       SUNNY     67  49  52 W13G20    29.87R
SPARTA*        SUNNY     69  50  49 SW9       29.88S
$$

ILZ064>066-069>071-074>076-080>082-084>086-088>090-092>094-281800-
SOUTH-CENTRAL ILLINOIS

CITY           SKY/WX    TMP DP  RH WIND       PRES   REMARKS
CARBONDALE     SUNNY     70  51  51 W9        29.88S
CAIRO*         SUNNY     72  55  54 SW8       29.90R
EFFINGHAM*     PTSUNNY   69  54  57 SW8G16    29.86S
MARION         MOSUNNY   72  54  53 W12       29.89R
MT. VERNON     MOSUNNY   70  52  52 SW12G17   29.88R
CENTRALIA*     MOSUNNY   71  55  57 SW9G18    29.85S
SALEM*         MOSUNNY   70  52  52 SW10G20   29.86R
METROPOLIS*    SUNNY     73  56  56 SW10G16   29.90S
$$

ILZ067-068-072-073-078-083-087-091-281800-
SOUTHEAST ILLINOIS

CITY           SKY/WX    TMP DP  RH WIND       PRES   REMARKS
LAWRENCEVILLE  MOSUNNY   72  56  57 W16       29.85R
FLORA*         SUNNY     71  51  48 W13       29.86S
FAIRFIELD*     MOSUNNY   71  51  49 W8        29.85S
HARRISBURG*    SUNNY     72  53  50 W14G21    29.88R
ROBINSON*      MOSUNNY   69  56  63 W15       29.85R
CARMI*         SUNNY     72  53  50 W13G18    29.86S
$$

ABBREVIATIONS USED IN REMARKS
   TC - TEMPERATURE IN CELSIUS
  WCI - WIND CHILL INDEX
   HX - HEAT INDEX
  VSB - VISIBILITY
$$




USA.gov is the U.S. government's official web portal to all federal, state and local government web resources and services.